Location: Unspecified
(0.0000°N, 0.0000°E)
Time: 05:29:07
(UTC+00:00)

Vanguard 3 - Visible Passes

Search period start: 06 May 2016 00:00
Search period end: 16 May 2016 00:00
Orbit: 509 x 3267 km, 33.3° (Epoch: 05 May)

Date Brightness Start Highest point End Pass type
(mag) Time Alt. Az. Time Alt. Az. Time Alt. Az.
06 May 11.2 00:28:05 10° NNW 00:32:14 11° N 00:35:58 10° N visible
06 May 10.5 02:46:56 10° NNW 02:51:14 13° N 02:54:44 10° NE visible
06 May 8.6 04:59:26 10° NW 05:06:11 38° NNE 05:10:31 10° E visible
06 May 10.2 18:19:25 10° WSW 18:34:33 73° NW 18:54:47 10° NE visible
06 May 11.1 20:37:13 10° W 20:53:17 34° NNW 21:09:30 10° NNE visible
06 May 11.3 23:04:45 10° NW 23:14:21 15° NNW 23:22:39 10° NNE visible
07 May 11.0 01:30:55 10° NNW 01:35:11 12° N 01:38:51 10° NNE visible
07 May 9.7 03:44:52 10° NNW 03:52:02 24° NNE 03:56:50 10° ENE visible
07 May 10.8 19:20:03 10° W 19:35:49 47° NNW 19:54:32 10° NE visible
07 May 11.3 21:42:37 10° WNW 21:56:07 22° NNW 22:08:32 10° NNE visible
08 May 11.2 00:11:47 10° NNW 00:18:02 13° N 00:23:24 10° NNE visible
08 May 10.4 02:29:47 10° NNW 02:37:01 18° NNE 02:42:17 10° NE visible
08 May 8.1 04:43:45 10° NW 04:51:48 54° NNE 04:56:35 10° ESE visible
08 May 10.4 18:04:43 10° WSW 18:18:53 65° NW 18:38:45 10° NE visible
08 May 11.2 20:22:55 10° W 20:38:00 30° NNW 20:53:50 10° NNE visible
08 May 11.3 22:50:09 10° NW 22:59:55 15° N 23:08:24 10° NNE visible
09 May 10.9 01:13:36 10° NNW 01:20:59 15° N 01:26:45 10° NE visible
09 May 9.4 03:28:37 10° NW 03:37:42 32° NNE 03:43:18 10° E visible
09 May 10.9 19:05:37 10° W 19:20:22 41° NNW 19:38:33 10° NE visible
09 May 11.4 21:28:32 10° WNW 21:41:19 20° NNW 21:53:24 10° NNE visible
09 May 11.2 23:55:32 10° NNW 00:03:46 15° N 00:10:37 10° NNE visible
10 May 10.2 02:13:04 10° NNW 02:22:41 24° NNE 02:29:09 10° ENE visible
10 May 7.7 04:28:07 10° NW 04:37:18 75° NNE 04:42:29 10° ESE visible
10 May 10.5 17:50:12 10° WSW 18:03:24 56° NNW 18:22:36 10° NE visible
10 May 11.3 20:08:49 10° WNW 20:22:54 27° NNW 20:38:07 10° NNE visible
10 May 11.3 22:35:21 10° NW 22:45:30 16° N 22:54:25 10° NNE visible
11 May 10.7 00:56:47 10° NNW 01:06:39 19° NNE 01:13:56 10° NE visible
11 May 9.0 03:12:25 10° NW 03:23:16 43° NNE 03:29:31 10° E visible
11 May 7.9 05:28:51 10° WNW 05:35:45 36° SW 05:40:10 10° SSE visible
11 May 11.1 18:51:24 10° W 19:05:05 36° NNW 19:22:27 10° NE visible
11 May 11.5 21:14:29 10° NW 21:26:39 19° NNW 21:38:24 10° NNE visible
11 May 11.1 23:39:16 10° NNW 23:49:26 17° N 23:57:38 10° NE visible
12 May 10.0 01:56:30 10° NNW 02:08:15 30° NNE 02:15:40 10° E visible
12 May 7.7 04:12:28 10° NW 04:22:39 84° SW 04:28:16 10° SE visible
12 May 11.4 19:54:55 10° WNW 20:07:58 24° NNW 20:22:24 10° NNE visible
12 May 11.3 22:20:17 10° NW 22:31:05 17° N 22:40:38 10° NE visible
13 May 10.7 00:40:06 10° NNW 01:00:47 10° ENE 00:49:32 23° N visible
13 May 8.8 03:05:40 44° NNW 03:08:40 56° NNE 03:15:32 10° ESE visible
13 May 8.3 05:13:56 10° W 05:21:00 30° SW 05:25:34 10° SSE visible
13 May 11.2 18:37:23 10° W 18:50:00 31° NNW 19:06:16 10° NNE visible
13 May 11.5 21:00:25 10° NW 21:12:05 18° N 21:23:33 10° NNE visible
13 May 11.0 23:23:01 10° NNW 23:34:59 20° N 23:38:34 18° NNE visible
14 May 10.0 01:39:59 10° NW 01:58:44 24° ENE 02:01:55 10° E visible
14 May 7.9 04:03:32 35° WNW 04:07:52 68° SW 04:13:56 10° SE visible
14 May 11.5 19:41:11 10° WNW 19:53:12 21° NNW 20:06:41 10° NNE visible
14 May 11.3 22:05:00 10° NNW 22:16:38 18° N 22:26:59 10° NE visible
15 May 10.8 00:23:31 10° NNW 00:32:28 25° N 00:32:28 25° N visible
15 May 8.8 02:56:03 55° E 02:56:03 55° E 03:01:23 10° ESE visible
15 May 8.7 05:00:49 14° W 05:06:09 25° SW 05:10:53 10° SSE visible
15 May 11.3 18:23:36 10° WNW 18:35:06 27° NNW 18:50:02 10° NNE visible
15 May 11.5 20:46:14 10° NW 20:57:34 18° N 21:08:54 10° NE visible
15 May 10.9 23:06:45 10° NNW 23:20:23 23° NNE 23:22:02 23° NNE visible
